Location: Girdwood
(60.9430°N, 149.1660°W)
Time: 07:24:35
(UTC-08:00)

Amateur Radio Satellites - All Passes

Search period start: 27 July 2016 06:54
Search period end: 28 July 2016 06:54
Location: Girdwood, 60.9430°N, 149.1660°W

Satellite Date Start Highest point End Downlink Frequencies (MHz)
Time Altitude Azimuth
LilacSat-2 27 Jul 06:57:04 06:58:45 12° 83° (E) 07:00:25 437.200
Cosmos 2491 27 Jul 06:58:11 07:05:21 27° 36° (NE) 07:12:31 435.465 / 435.565
O/OREOS (USA 219) 27 Jul 07:07:55 07:12:22 57° 240° (WSW) 07:16:49 437.305
PCSat 27 Jul 07:13:30 07:14:54 11° 258° (WSW) 07:16:19 145.827
Cubesat XI-IV 27 Jul 07:14:52 07:18:59 22° 86° (E) 07:23:03 437.490
GONETS M04 27 Jul 07:23:47 07:26:36 12° 307° (NW) 07:29:27
BRITE-PL 27 Jul 07:23:58 07:28:12 34° 95° (E) 07:32:44 437.365/2234.400
PRISM 27 Jul 07:24:40 07:27:18 17° 46° (NE) 07:29:56 437.425
Gurwin Techsat 1B 27 Jul 07:26:00 07:29:12 16° 326° (NW) 07:32:25 435.225
CUSAT 1 27 Jul 07:31:29 07:32:16 11° 307° (NW) 07:33:03 437.405
STRAND 1 27 Jul 07:35:47 07:40:56 73° 66° (ENE) 07:46:05 437.568
CUTE-I 27 Jul 07:38:17 07:42:59 30° 92° (E) 07:47:39 437.470
ITAMSAT 1 27 Jul 07:39:34 07:43:32 22° 317° (NW) 07:47:29 435.822/435.867
CUBESAT XI-V 27 Jul 07:45:30 07:48:40 18° 275° (W) 07:51:50 437.345
Oscar 19 27 Jul 07:46:14 07:46:52 10° 339° (NNW) 07:47:30 437.125/150
AIST 2 27 Jul 07:52:16 07:53:38 11° 246° (WSW) 07:55:01 435.215
DANDE 27 Jul 07:52:16 07:55:36 21° 301° (WNW) 07:58:22 436.750
RS-15 27 Jul 07:54:14 08:04:30 38° 111° (ESE) 08:15:10 29.354- 29.394
NOAA 15 27 Jul 07:58:09 08:03:13 46° 99° (E) 08:08:18 137.62
HO-68 27 Jul 08:01:43 08:05:19 14° 74° (ENE) 08:08:55 435.675
NOAA 18 27 Jul 08:14:58 08:20:22 47° 100° (E) 08:25:43 137.9125
TIGRISAT 27 Jul 08:17:58 08:19:44 12° 34° (NE) 08:21:31 435.000
DOVE 4 27 Jul 08:18:09 08:22:37 31° 92° (E) 08:27:13 437.250
AO-7 27 Jul 08:24:28 08:32:19 47° 317° (NW) 08:40:08 29.400- 29.500
CUTE 1.7 + AOD 2 27 Jul 08:24:59 08:25:16 10° 78° (ENE) 08:25:31 437.475
GOMX 1 27 Jul 08:25:35 08:30:22 54° 100° (E) 08:35:28 467.674
CINEMA 3 27 Jul 08:29:38 08:32:55 17° 82° (E) 08:36:11 145.822/145.860
LilacSat-2 27 Jul 08:29:57 08:33:51 66° 103° (ESE) 08:37:43 437.200
HORYU 2 27 Jul 08:30:52 08:35:05 40° 301° (WNW) 08:39:16 437.375
UNISAT 6 27 Jul 08:33:24 08:35:54 14° 38° (NE) 08:38:24 437.425
YUBILEINY 27 Jul 08:45:12 08:50:32 18° 62° (ENE) 08:55:54 435.215
O/OREOS (USA 219) 27 Jul 08:48:45 08:50:53 13° 261° (W) 08:53:03 437.305
Cubesat XI-IV 27 Jul 08:54:28 08:59:53 83° 109° (ESE) 09:05:16 437.490
Cosmos 2491 27 Jul 08:55:41 09:04:21 60° 65° (ENE) 09:13:01 435.465 / 435.565
PRISM 27 Jul 08:57:57 09:01:59 66° 68° (ENE) 09:06:04 437.425
SEEDS 27 Jul 09:02:07 09:04:39 15° 84° (E) 09:07:10 437.485
BRITE-PL 27 Jul 09:02:28 09:06:57 55° 295° (WNW) 09:11:47 437.365/2234.400
SO-50 27 Jul 09:09:08 09:12:00 16° 116° (ESE) 09:14:51 436.795
ANTELSAT 27 Jul 09:10:24 09:13:55 21° 47° (NE) 09:17:28 437.575/2403.000
COMPASS 1 27 Jul 09:13:44 09:16:06 15° 84° (E) 09:18:27 437.405
UWE-3 27 Jul 09:15:00 09:16:06 11° 76° (ENE) 09:17:13 435.000/436.395/437.385
STRAND 1 27 Jul 09:16:10 09:20:37 29° 268° (W) 09:25:06 437.568
CUTE-I 27 Jul 09:18:11 09:23:34 74° 294° (WNW) 09:28:53 437.470
ITAMSAT 1 27 Jul 09:20:31 09:21:23 10° 341° (NNW) 09:22:15 435.822/435.867
CUBEBUG 2 27 Jul 09:35:46 09:39:18 20° 85° (E) 09:42:47 437.445
NOAA 15 27 Jul 09:38:04 09:43:08 48° 301° (WNW) 09:48:10 137.62
AAUSAT CUBESAT 2 27 Jul 09:41:28 09:44:32 20° 88° (E) 09:47:35 437.432
NANOSAT C BR1 27 Jul 09:42:55 09:44:15 11° 37° (NE) 09:45:35 145.865
CANX-2 27 Jul 09:44:40 09:48:44 43° 98° (E) 09:52:46 2200.000
DUCHIFAT 1 27 Jul 09:47:01 09:48:25 11° 37° (NE) 09:49:50 145.980
HO-68 27 Jul 09:48:07 09:55:04 47° 98° (E) 10:01:57 435.675
TIGRISAT 27 Jul 09:51:03 09:55:15 33° 56° (NE) 09:59:29 435.000
Oscar 11 27 Jul 09:55:33 09:57:58 14° 83° (E) 10:00:23 145.826/435.025
DOVE 4 27 Jul 09:55:43 10:00:41 68° 293° (WNW) 10:05:53 437.250
NOAA 18 27 Jul 09:55:46 10:01:09 50° 302° (WNW) 10:06:29 137.9125
CUTE 1.7 + AOD 2 27 Jul 09:58:02 10:02:11 49° 100° (E) 10:06:17 437.475
RS-15 27 Jul 10:03:44 10:15:30 78° 140° (SE) 10:27:49 29.354- 29.394
GOMX 1 27 Jul 10:03:56 10:08:25 39° 300° (WNW) 10:13:10 467.674
QB50P1 27 Jul 10:04:04 10:06:28 15° 43° (NE) 10:08:53 145.935-145.965
LilacSat-2 27 Jul 10:04:41 10:07:53 25° 304° (NW) 10:11:04 437.200
CINEMA 3 27 Jul 10:05:56 10:10:57 69° 103° (ESE) 10:15:59 145.822/145.860
UNISAT 6 27 Jul 10:07:11 10:11:36 43° 60° (ENE) 10:16:05 437.425
HORYU 2 27 Jul 10:08:31 10:10:39 13° 323° (NW) 10:12:46 437.375
POPSAT HIP 1 27 Jul 10:10:18 10:12:53 16° 44° (NE) 10:15:29 437.405
AO-7 27 Jul 10:16:49 10:23:28 28° 343° (NNW) 10:30:07 29.400- 29.500
Cosmos 2504 27 Jul 10:19:40 10:25:58 22° 69° (ENE) 10:32:09 435.465 / 435.565
QB50P2 27 Jul 10:30:26 10:33:38 21° 50° (NE) 10:36:52 145.880/145.840
POLYITAN 1 27 Jul 10:33:02 10:36:16 21° 50° (NE) 10:39:32 437.675
PRISM 27 Jul 10:34:23 10:37:43 24° 268° (W) 10:41:03 437.425
Cubesat XI-IV 27 Jul 10:34:56 10:39:34 30° 311° (NW) 10:44:12 437.490
SEEDS 27 Jul 10:36:53 10:41:07 77° 106° (ESE) 10:45:17 437.485
YUBILEINY 27 Jul 10:36:53 10:45:17 52° 88° (E) 10:53:44 435.215
BRITE-PL 27 Jul 10:41:53 10:44:43 17° 316° (NW) 10:47:41 437.365/2234.400
JAS-2 27 Jul 10:42:09 10:45:52 19° 39° (NE) 10:49:27 435.910
ANTELSAT 27 Jul 10:45:20 10:50:01 74° 69° (ENE) 10:54:46 437.575/2403.000
SO-50 27 Jul 10:46:54 10:51:37 51° 137° (SE) 10:56:16 436.795
COMPASS 1 27 Jul 10:48:16 10:52:26 73° 105° (ESE) 10:56:34 437.405
FUNcube-1 27 Jul 10:48:23 10:52:32 33° 94° (E) 10:56:35 145.935
UWE-3 27 Jul 10:49:14 10:53:47 47° 99° (E) 10:58:13 435.000/436.395/437.385
ZACube-1 27 Jul 10:49:25 10:53:38 35° 94° (E) 10:57:46 437.345
Cosmos 2491 27 Jul 10:52:53 11:01:16 54° 271° (W) 11:09:39 435.465 / 435.565
CUTE-I 27 Jul 10:58:44 11:02:57 24° 316° (NW) 11:07:09 437.470
Oscar 19 27 Jul 10:59:17 11:01:21 12° 28° (NNE) 11:03:26 437.125/150
M-CUBED/EXP-1 PRIME 27 Jul 11:08:16 11:11:22 17° 93° (E) 11:14:28 437.505
CUBEBUG 2 27 Jul 11:11:49 11:16:38 86° 108° (ESE) 11:21:21 437.445
NANOSAT C BR1 27 Jul 11:15:04 11:18:56 35° 59° (ENE) 11:22:52 145.865
AAUSAT CUBESAT 2 27 Jul 11:16:25 11:20:34 81° 290° (WNW) 11:24:41 437.432
NOAA 15 27 Jul 11:18:31 11:21:55 18° 323° (NW) 11:25:20 137.62
DUCHIFAT 1 27 Jul 11:19:11 11:23:05 36° 59° (ENE) 11:27:01 145.980
CANX-2 27 Jul 11:20:40 11:24:37 38° 299° (WNW) 11:28:32 2200.000
TIGRISAT 27 Jul 11:27:06 11:31:45 61° 257° (WSW) 11:36:28 435.000
Oscar 11 27 Jul 11:30:36 11:34:57 69° 104° (ESE) 11:39:16 145.826/435.025
BUGSAT 1 27 Jul 11:33:05 11:36:37 27° 55° (NE) 11:40:12 437.445
AUBIESAT-1 27 Jul 11:33:54 11:37:31 22° 96° (E) 11:41:09 437.475
DOVE 4 27 Jul 11:34:04 11:37:44 21° 313° (NW) 11:41:32 437.250
CUTE 1.7 + AOD 2 27 Jul 11:34:06 11:37:58 34° 301° (WNW) 11:41:47 437.475
HO-68 27 Jul 11:36:01 11:43:09 64° 302° (WNW) 11:50:15 435.675
DELFI C3 27 Jul 11:36:58 11:40:46 42° 99° (E) 11:44:32 145.870
NOAA 18 27 Jul 11:36:59 11:40:48 19° 325° (NW) 11:44:39 137.9125
QB50P1 27 Jul 11:37:18 11:41:27 51° 64° (ENE) 11:45:38 145.935-145.965
GOMX 1 27 Jul 11:43:10 11:45:29 14° 322° (NW) 11:47:53 467.674
CINEMA 3 27 Jul 11:43:24 11:47:50 33° 304° (NW) 11:52:18 145.822/145.860
POPSAT HIP 1 27 Jul 11:43:44 11:47:55 56° 65° (ENE) 11:52:09 437.405
UNISAT 6 27 Jul 11:43:51 11:48:21 45° 262° (W) 11:52:55 437.425
HUMSAT D 27 Jul 12:01:45 12:05:48 40° 97° (E) 12:09:46 437.325/437.525
QB50P2 27 Jul 12:04:40 12:08:57 83° 71° (ENE) 12:13:17 145.880/145.840
POLYITAN 1 27 Jul 12:07:17 12:11:35 84° 70° (ENE) 12:15:56 437.675
AO-7 27 Jul 12:07:34 12:14:02 26° 11° (N) 12:20:30 29.400- 29.500
Cosmos 2504 27 Jul 12:09:06 12:17:48 62° 93° (E) 12:26:19 435.465 / 435.565
AISAT 27 Jul 12:09:17 12:09:57 10° 79° (ENE) 12:10:36 437.250
SEEDS 27 Jul 12:13:05 12:16:28 24° 307° (NW) 12:19:49 437.485
Cubesat XI-IV 27 Jul 12:15:51 12:18:14 13° 334° (NNW) 12:20:38 437.490
RS-15 27 Jul 12:16:29 12:28:33 76° 351° (N) 12:41:01 29.354- 29.394
Gurwin Techsat 1B 27 Jul 12:19:32 12:23:10 19° 38° (NE) 12:26:48 435.225
ANTELSAT 27 Jul 12:23:19 12:27:13 26° 270° (W) 12:31:11 437.575/2403.000
COMPASS 1 27 Jul 12:24:18 12:27:41 25° 306° (NW) 12:31:03 437.405
FUNcube-1 27 Jul 12:24:33 12:29:01 54° 295° (WNW) 12:33:23 145.935
JAS-2 27 Jul 12:24:39 12:30:09 56° 62° (ENE) 12:35:18 435.910
ZACube-1 27 Jul 12:25:41 12:30:08 51° 296° (WNW) 12:34:29 437.345
UWE-3 27 Jul 12:25:51 12:30:14 40° 300° (WNW) 12:34:33 435.000/436.395/437.385
SO-50 27 Jul 12:27:14 12:32:06 71° 340° (NNW) 12:36:52 436.795
YUBILEINY 27 Jul 12:33:20 12:42:04 63° 294° (WNW) 12:50:54 435.215
ITAMSAT 1 27 Jul 12:33:41 12:36:14 14° 29° (NNE) 12:38:46 435.822/435.867
Oscar 19 27 Jul 12:34:54 12:39:20 30° 51° (NE) 12:43:47 437.125/150
CUTE-I 27 Jul 12:39:51 12:41:23 11° 340° (NNW) 12:42:56 437.470
M-CUBED/EXP-1 PRIME 27 Jul 12:41:59 12:46:37 71° 113° (ESE) 12:51:20 437.505
ESTCUBE 1 27 Jul 12:43:17 12:47:03 26° 91° (E) 12:50:48 437.505/2401.250
CUBEBUG 2 27 Jul 12:48:53 12:52:49 26° 308° (NW) 12:56:41 437.445
NANOSAT C BR1 27 Jul 12:50:29 12:54:37 49° 260° (W) 12:58:48 145.865
Cosmos 2491 27 Jul 12:50:44 12:56:08 18° 297° (WNW) 13:01:33 435.465 / 435.565
AAUSAT CUBESAT 2 27 Jul 12:52:35 12:55:33 19° 310° (NW) 12:58:29 437.432
SPROUT 27 Jul 12:52:45 12:54:41 13° 81° (E) 12:56:36 437.525
DUCHIFAT 1 27 Jul 12:54:38 12:58:45 47° 260° (W) 13:02:54 145.980
50 SAT 27 Jul 12:54:52 12:57:29 18° 90° (E) 13:00:04 437.505
CANX-2 27 Jul 12:57:58 12:59:30 12° 321° (NW) 13:01:01 2200.000
VELOX 1 27 Jul 12:58:40 13:02:13 23° 90° (E) 13:05:43 145.980
CUBEBUG 1 27 Jul 12:58:57 13:02:37 25° 91° (E) 13:06:16 437.445
TIGRISAT 27 Jul 13:06:54 13:09:26 14° 279° (W) 13:11:59 435.000
Oscar 11 27 Jul 13:07:08 13:10:49 27° 305° (NW) 13:14:28 145.826/435.025
BUGSAT 1 27 Jul 13:07:38 13:11:45 65° 257° (WSW) 13:15:57 437.445
AUBIESAT-1 27 Jul 13:07:54 13:12:30 89° 296° (WNW) 13:17:11 437.475
CUTE 1.7 + AOD 2 27 Jul 13:11:44 13:12:45 11° 323° (NW) 13:13:46 437.475
DELFI C3 27 Jul 13:11:59 13:15:37 35° 299° (WNW) 13:19:13 145.870
QB50P1 27 Jul 13:13:36 13:17:27 32° 265° (W) 13:21:21 145.935-145.965
NOAA 18 27 Jul 13:18:17 13:19:38 11° 349° (N) 13:21:00 137.9125
POPSAT HIP 1 27 Jul 13:20:14 13:24:00 29° 267° (W) 13:27:48 437.405
CINEMA 3 27 Jul 13:21:44 13:23:43 12° 327° (NNW) 13:25:44 145.822/145.860
HO-68 27 Jul 13:23:58 13:29:53 29° 326° (NW) 13:35:47 435.675
UNISAT 6 27 Jul 13:25:28 13:26:19 10° 284° (WNW) 13:27:10 437.425
AIST 1 27 Jul 13:34:44 13:37:32 17° 82° (E) 13:40:22
HUMSAT D 27 Jul 13:37:29 13:41:29 40° 299° (WNW) 13:45:25 437.325/437.525
DX 1 27 Jul 13:41:46 13:45:49 35° 97° (E) 13:49:52 434.975-435.025
QB50P2 27 Jul 13:42:07 13:45:20 20° 272° (W) 13:48:34 145.880/145.840
AISAT 27 Jul 13:43:14 13:47:34 47° 100° (E) 13:51:53 437.250
POLYITAN 1 27 Jul 13:44:47 13:47:59 20° 272° (W) 13:51:12 437.675
TISAT 1 27 Jul 13:47:15 13:48:44 12° 81° (E) 13:50:15 437.305
UKube-1 27 Jul 13:54:45 13:58:49 37° 97° (E) 14:02:51 .
Gurwin Techsat 1B 27 Jul 13:57:01 14:02:11 53° 61° (ENE) 14:07:23 435.225
AO-7 27 Jul 13:57:24 14:04:59 40° 37° (NE) 14:12:34 29.400- 29.500
FUNcube-1 27 Jul 14:01:39 14:04:26 16° 317° (NW) 14:07:11 145.935
Cosmos 2504 27 Jul 14:02:50 14:11:32 54° 298° (WNW) 14:20:00 435.465 / 435.565
ZACube-1 27 Jul 14:02:51 14:05:33 16° 318° (NW) 14:08:13 437.345
UWE-3 27 Jul 14:03:22 14:05:39 14° 322° (NW) 14:07:55 435.000/436.395/437.385
SO-50 27 Jul 14:08:19 14:13:04 56° 4° (N) 14:17:42 436.795
ITAMSAT 1 27 Jul 14:09:46 14:14:25 34° 52° (NE) 14:19:05 435.822/435.867
JAS-2 27 Jul 14:10:18 14:15:34 38° 264° (W) 14:20:32 435.910
Oscar 19 27 Jul 14:13:10 14:18:19 78° 253° (WSW) 14:23:30 437.125/150
M-CUBED/EXP-1 PRIME 27 Jul 14:16:48 14:20:53 33° 313° (NW) 14:25:06 437.505
ESTCUBE 1 27 Jul 14:19:49 14:24:18 69° 292° (WNW) 14:28:46 437.505/2401.250
CUSAT 1 27 Jul 14:26:00 14:28:11 21° 61° (ENE) 14:30:32 437.405
SPROUT 27 Jul 14:27:16 14:31:34 60° 103° (ESE) 14:35:51 437.525
50 SAT 27 Jul 14:27:56 14:31:34 72° 290° (WNW) 14:35:09 437.505
RS-15 27 Jul 14:29:54 14:42:10 83° 22° (NNE) 14:54:38 29.354- 29.394
NANOSAT C BR1 27 Jul 14:30:56 14:31:26 10° 281° (W) 14:31:57 145.865
YUBILEINY 27 Jul 14:33:39 14:40:59 28° 323° (NW) 14:48:22 435.215
VELOX 1 27 Jul 14:34:44 14:39:12 78° 292° (WNW) 14:43:39 145.980
CUBEBUG 1 27 Jul 14:34:57 14:39:20 69° 292° (WNW) 14:43:43 437.445
AUBIESAT-1 27 Jul 14:42:44 14:46:33 27° 317° (NW) 14:50:27 437.475
ITUPSAT 1 27 Jul 14:43:12 14:43:51 10° 77° (ENE) 14:44:29 437.325
AO-85 27 Jul 14:43:38 14:46:50 17° 116° (ESE) 14:49:57 145.980
BUGSAT 1 27 Jul 14:45:58 14:48:00 13° 277° (W) 14:50:02 437.445
GONETS M04 27 Jul 14:48:03 14:54:16 23° 68° (ENE) 15:00:31
DELFI C3 27 Jul 14:48:59 14:49:30 10° 321° (NW) 14:50:00 145.870
HORYU 2 27 Jul 14:53:04 14:54:36 12° 34° (NNE) 14:56:08 437.375
DANDE 27 Jul 14:53:04 14:54:45 15° 54° (NE) 14:56:23 436.750
NOAA 18 27 Jul 14:56:33 14:58:10 11° 14° (NNE) 14:59:47 137.9125
AIST 1 27 Jul 15:10:17 15:14:33 88° 98° (E) 15:18:53
Cosmos 2499 27 Jul 15:10:35 15:16:54 23° 70° (ENE) 15:23:00 435.465 / 435.565
HO-68 27 Jul 15:11:01 15:15:38 19° 352° (N) 15:20:13 435.675
HUMSAT D 27 Jul 15:14:24 15:16:09 12° 321° (NW) 15:17:52 437.325/437.525
DX 1 27 Jul 15:17:57 15:22:12 49° 298° (WNW) 15:26:25 434.975-435.025
AISAT 27 Jul 15:19:53 15:24:01 38° 301° (WNW) 15:28:10 437.250
TISAT 1 27 Jul 15:21:09 15:25:23 55° 102° (ESE) 15:29:35 437.305
UKube-1 27 Jul 15:30:50 15:35:00 46° 298° (WNW) 15:39:08 .
Cubesat XI-IV 27 Jul 15:32:16 15:34:13 12° 23° (NNE) 15:36:09 437.490
SWISSCUBE 27 Jul 15:33:49 15:37:47 25° 90° (E) 15:41:42 437.505
Gurwin Techsat 1B 27 Jul 15:37:17 15:42:20 42° 263° (W) 15:47:26 435.225
ITAMSAT 1 27 Jul 15:48:25 15:53:39 71° 255° (WSW) 15:58:53 435.822/435.867
AO-7 27 Jul 15:48:41 15:57:05 85° 62° (ENE) 16:05:32 29.400- 29.500
SO-50 27 Jul 15:49:08 15:53:57 84° 27° (NNE) 15:58:36 436.795
M-CUBED/EXP-1 PRIME 27 Jul 15:52:00 15:54:23 14° 334° (NNW) 15:56:48 437.505
CUTE-I 27 Jul 15:54:40 15:57:20 14° 29° (NNE) 15:59:59 437.470
Oscar 19 27 Jul 15:54:49 15:58:30 20° 275° (W) 16:02:13 437.125/150
BEESAT 27 Jul 15:55:01 15:59:19 32° 94° (E) 16:03:36 436.000
ESTCUBE 1 27 Jul 15:57:20 16:00:29 19° 314° (NW) 16:03:38 437.505/2401.250
Cosmos 2504 27 Jul 16:00:09 16:07:11 25° 326° (NW) 16:14:01 435.465 / 435.565
50 SAT 27 Jul 16:02:29 16:04:38 15° 311° (NW) 16:06:48 437.505
SPROUT 27 Jul 16:03:32 16:07:20 31° 304° (NW) 16:11:08 437.525
CUSAT 1 27 Jul 16:07:47 16:10:15 31° 260° (W) 16:13:02 437.405
VELOX 1 27 Jul 16:11:49 16:15:07 21° 312° (NW) 16:18:26 145.980
CUBEBUG 1 27 Jul 16:11:57 16:15:00 19° 313° (NW) 16:18:03 437.445
NOAA 15 27 Jul 16:12:06 16:15:28 18° 36° (NE) 16:18:50 137.62
AUBIESAT-1 27 Jul 16:17:59 16:19:51 12° 338° (NNW) 16:21:45 437.475
ITUPSAT 1 27 Jul 16:18:22 16:22:59 45° 99° (E) 16:27:34 437.325
AO-85 27 Jul 16:21:26 16:26:30 51° 137° (SE) 16:31:16 145.980
HORYU 2 27 Jul 16:26:00 16:30:02 33° 56° (NE) 16:34:05 437.375
MOZHAYETS 4 27 Jul 16:32:09 16:34:55 16° 83° (E) 16:37:39
GOMX 1 27 Jul 16:32:16 16:33:45 12° 34° (NE) 16:35:16 467.674
NOAA 18 27 Jul 16:33:01 16:37:03 21° 38° (NE) 16:41:05 137.9125
DANDE 27 Jul 16:35:16 16:37:50 43° 259° (W) 16:40:21 436.750
YUBILEINY 27 Jul 16:35:53 16:41:41 18° 356° (N) 16:47:30 435.215
GONETS M04 27 Jul 16:40:57 16:49:29 65° 94° (E) 16:58:06
RS-15 27 Jul 16:42:37 16:54:32 62° 232° (SW) 17:06:31 29.354- 29.394
AIST 1 27 Jul 16:49:31 16:52:47 21° 306° (NW) 16:56:06
DX 1 27 Jul 16:55:07 16:57:33 15° 319° (NW) 17:00:00 434.975-435.025
HO-68 27 Jul 16:56:08 17:01:06 21° 18° (NNE) 17:06:05 435.675
TISAT 1 27 Jul 16:57:05 17:00:53 32° 303° (WNW) 17:04:41 437.305
AISAT 27 Jul 16:57:35 16:59:30 13° 323° (NW) 17:01:25 437.250
Cosmos 2499 27 Jul 16:59:54 17:08:34 64° 94° (E) 17:16:52 435.465 / 435.565
UKube-1 27 Jul 17:07:54 17:10:10 14° 320° (NW) 17:12:27 .
BRITE-PL 27 Jul 17:08:09 17:11:28 24° 52° (NE) 17:14:55 437.365/2234.400
Cubesat XI-IV 27 Jul 17:08:20 17:12:45 26° 46° (NE) 17:17:10 437.490
SWISSCUBE 27 Jul 17:11:19 17:16:07 77° 292° (WNW) 17:20:52 437.505
Gurwin Techsat 1B 27 Jul 17:22:50 17:23:48 10° 285° (WNW) 17:24:46 435.225
SO-50 27 Jul 17:29:51 17:34:10 36° 230° (SW) 17:38:21 436.795
KKS-1 27 Jul 17:30:00 17:34:07 34° 96° (E) 17:38:14 437.445
ITAMSAT 1 27 Jul 17:30:32 17:34:04 18° 276° (W) 17:37:38 435.822/435.867
CUTE-I 27 Jul 17:31:17 17:36:03 33° 52° (NE) 17:40:50 437.470
BEESAT 27 Jul 17:32:42 17:37:26 60° 296° (WNW) 17:42:07 436.000
SPROUT 27 Jul 17:41:36 17:42:09 10° 326° (NW) 17:42:41 437.525
AO-7 27 Jul 17:43:10 17:50:48 37° 266° (W) 17:58:29 29.400- 29.500
LilacSat-2 27 Jul 17:47:56 17:51:15 27° 57° (ENE) 17:54:34 437.200
NOAA 15 27 Jul 17:49:14 17:54:15 48° 59° (ENE) 17:59:17 137.62
CUBESAT XI-V 27 Jul 17:53:05 17:55:35 14° 82° (E) 17:58:05 437.345
ITUPSAT 1 27 Jul 17:56:20 18:00:53 44° 301° (WNW) 18:05:25 437.325
DOVE 4 27 Jul 17:57:39 18:01:05 21° 47° (NE) 18:04:40 437.250
Cosmos 2504 27 Jul 17:58:58 18:04:23 17° 357° (N) 18:09:39 435.465 / 435.565
AO-85 27 Jul 18:01:50 18:07:00 71° 338° (NNW) 18:11:46 145.980
HORYU 2 27 Jul 18:01:59 18:06:26 58° 257° (WSW) 18:10:55 437.375
CINEMA 3 27 Jul 18:06:29 18:09:02 15° 38° (NE) 18:11:39 145.822/145.860
GOMX 1 27 Jul 18:06:45 18:10:39 34° 57° (ENE) 18:14:47 467.674
STARS 27 Jul 18:07:08 18:11:20 39° 98° (E) 18:15:31 437.465
MOZHAYETS 4 27 Jul 18:08:21 18:12:58 70° 104° (ESE) 18:17:33
NOAA 18 27 Jul 18:11:23 18:16:48 56° 60° (ENE) 18:22:16 137.9125
SEEDS 27 Jul 18:30:41 18:32:07 12° 39° (NE) 18:33:34 437.485
TISAT 1 27 Jul 18:34:36 18:35:27 11° 325° (NW) 18:36:18 437.305
YUBILEINY 27 Jul 18:35:47 18:42:40 24° 29° (NNE) 18:49:30 435.215
GONETS M04 27 Jul 18:38:19 18:46:45 51° 300° (WNW) 18:55:17
HO-68 27 Jul 18:40:43 18:47:09 37° 43° (NE) 18:53:36 435.675
COMPASS 1 27 Jul 18:41:42 18:42:49 11° 38° (NE) 18:43:55 437.405
BRITE-PL 27 Jul 18:45:27 18:49:37 79° 255° (WSW) 18:53:57 437.365/2234.400
Cubesat XI-IV 27 Jul 18:46:52 18:52:16 82° 69° (ENE) 18:57:42 437.490
UWE-3 27 Jul 18:47:56 18:49:02 11° 32° (NNE) 18:50:08 435.000/436.395/437.385
SWISSCUBE 27 Jul 18:49:41 18:53:20 22° 314° (NW) 18:56:58 437.505
Cosmos 2499 27 Jul 18:53:30 19:02:06 52° 299° (WNW) 19:10:17 435.465 / 435.565
RS-15 27 Jul 18:55:25 19:04:38 26° 260° (W) 19:13:51 29.354- 29.394
M-CUBED/EXP-1 PRIME 27 Jul 18:58:46 19:00:14 12° 19° (NNE) 19:01:42 437.505
KKS-1 27 Jul 19:06:32 19:10:55 52° 297° (WNW) 19:15:18 437.445
AAUSAT CUBESAT 2 27 Jul 19:08:16 19:10:17 13° 43° (NE) 19:12:18 437.432
CUBEBUG 2 27 Jul 19:09:03 19:11:55 16° 41° (NE) 19:14:47 437.445
CUTE-I 27 Jul 19:10:26 19:15:49 74° 254° (WSW) 19:21:14 437.470
BEESAT 27 Jul 19:11:11 19:14:28 19° 318° (NW) 19:17:45 436.000
CANX-2 27 Jul 19:12:17 19:15:46 25° 54° (NE) 19:19:14 2200.000
LilacSat-2 27 Jul 19:21:29 19:25:21 59° 258° (WSW) 19:29:14 437.200
AUBIESAT-1 27 Jul 19:23:38 19:25:33 13° 23° (NNE) 19:27:31 437.475
CUTE 1.7 + AOD 2 27 Jul 19:25:24 19:29:01 27° 55° (NE) 19:32:37 437.475
Oscar 11 27 Jul 19:26:35 19:28:15 12° 38° (NE) 19:29:55 145.826/435.025
NOAA 15 27 Jul 19:29:04 19:34:08 47° 261° (W) 19:39:13 137.62
CUBESAT XI-V 27 Jul 19:29:19 19:33:55 64° 103° (ESE) 19:38:31 437.345
DOVE 4 27 Jul 19:33:43 19:38:10 78° 70° (ENE) 19:42:57 437.250
ITUPSAT 1 27 Jul 19:35:03 19:37:45 15° 323° (NW) 19:40:26 437.325
STRAND 1 27 Jul 19:37:27 19:39:32 12° 78° (ENE) 19:41:37 437.568
CINEMA 3 27 Jul 19:40:40 19:45:05 42° 60° (ENE) 19:49:42 145.822/145.860
HORYU 2 27 Jul 19:41:54 19:43:59 13° 278° (W) 19:46:05 437.375
AO-85 27 Jul 19:43:03 19:47:59 54° 2° (N) 19:52:29 145.980
STARS 27 Jul 19:43:33 19:47:49 46° 299° (WNW) 19:52:04 437.465
BEESAT 3 27 Jul 19:43:36 19:46:00 16° 120° (ESE) 19:48:24 437.485
AO-7 27 Jul 19:44:27 19:46:31 11° 293° (WNW) 19:48:35 29.400- 29.500
GOMX 1 27 Jul 19:44:29 19:48:40 52° 260° (W) 19:53:08 467.674
MOZHAYETS 4 27 Jul 19:45:55 19:49:52 29° 306° (NW) 19:53:49
BEESAT 2 27 Jul 19:52:05 19:53:38 12° 115° (ESE) 19:55:11 435.950
NOAA 18 27 Jul 19:52:27 19:57:43 42° 262° (W) 20:03:01 137.9125
Cosmos 2504 27 Jul 19:55:12 20:01:44 23° 29° (NNE) 20:07:56 435.465 / 435.565
SEEDS 27 Jul 20:02:56 20:06:51 38° 61° (ENE) 20:10:46 437.485
COMPASS 1 27 Jul 20:13:33 20:17:22 36° 60° (ENE) 20:21:12 437.405
FUNcube-1 27 Jul 20:18:33 20:22:05 22° 50° (NE) 20:25:37 145.935
Cosmos 2491 27 Jul 20:19:28 20:23:45 15° 58° (ENE) 20:28:02 435.465 / 435.565
ZACube-1 27 Jul 20:19:44 20:23:22 23° 51° (NE) 20:27:01 437.345
PCSat 27 Jul 20:19:58 20:24:04 22° 113° (ESE) 20:28:09 145.827
UWE-3 27 Jul 20:20:12 20:24:13 30° 55° (NE) 20:28:18 435.000/436.395/437.385
BRITE-PL 27 Jul 20:26:29 20:28:59 15° 277° (W) 20:31:32 437.365/2234.400
HO-68 27 Jul 20:27:07 20:34:20 90° 356° (N) 20:41:37 435.675
Cubesat XI-IV 27 Jul 20:28:28 20:32:59 27° 270° (W) 20:37:32 437.490
M-CUBED/EXP-1 PRIME 27 Jul 20:30:07 20:33:29 24° 41° (NE) 20:37:04 437.505
YUBILEINY 27 Jul 20:33:29 20:42:06 50° 59° (ENE) 20:50:38 435.215
GONETS M04 27 Jul 20:39:21 20:46:07 24° 330° (NNW) 20:52:58
AAUSAT CUBESAT 2 27 Jul 20:40:56 20:44:56 47° 64° (ENE) 20:48:57 437.432
CUBEBUG 2 27 Jul 20:43:05 20:47:37 50° 63° (ENE) 20:52:15 437.445
KKS-1 27 Jul 20:43:57 20:46:41 16° 319° (NW) 20:49:25 437.445
CANX-2 27 Jul 20:46:59 20:51:17 77° 255° (WSW) 20:55:35 2200.000
Cosmos 2499 27 Jul 20:50:42 20:57:28 24° 326° (NNW) 21:03:58 435.465 / 435.565
CUTE-I 27 Jul 20:53:00 20:56:49 19° 276° (W) 21:00:39 437.470
AUBIESAT-1 27 Jul 20:55:16 20:58:53 29° 45° (NE) 21:02:42 437.475
DELFI C3 27 Jul 20:58:47 21:01:50 21° 53° (NE) 21:04:53 145.870
LilacSat-2 27 Jul 20:59:19 21:00:31 11° 279° (W) 21:01:44 437.200
Oscar 11 27 Jul 20:59:21 21:03:22 38° 60° (ENE) 21:07:25 145.826/435.025
CUTE 1.7 + AOD 2 27 Jul 21:00:20 21:04:35 68° 256° (WSW) 21:08:52 437.475
CUBESAT XI-V 27 Jul 21:07:03 21:11:06 31° 304° (NW) 21:15:09 437.345
DOVE 4 27 Jul 21:12:55 21:16:30 23° 273° (W) 21:20:15 437.250
NOAA 15 27 Jul 21:13:32 21:15:18 12° 283° (WNW) 21:17:05 137.62
STRAND 1 27 Jul 21:14:59 21:20:00 50° 100° (E) 21:24:58 437.568
CINEMA 3 27 Jul 21:17:43 21:22:14 47° 262° (W) 21:26:58 145.822/145.860
BEESAT 3 27 Jul 21:19:07 21:23:00 58° 140° (SE) 21:26:55 437.485
STARS 27 Jul 21:20:53 21:23:17 14° 320° (NW) 21:25:41 437.465
AO-85 27 Jul 21:24:01 21:28:53 79° 26° (NNE) 21:33:18 145.980
MOZHAYETS 4 27 Jul 21:24:58 21:25:47 10° 328° (NNW) 21:26:36
BEESAT 2 27 Jul 21:26:47 21:30:37 46° 136° (SE) 21:34:27 435.950
GOMX 1 27 Jul 21:26:51 21:28:00 11° 283° (WNW) 21:29:11 467.674
HUMSAT D 27 Jul 21:28:02 21:31:30 24° 53° (NE) 21:34:57 437.325/437.525
O/OREOS (USA 219) 27 Jul 21:31:08 21:34:30 21° 106° (ESE) 21:37:52 437.305
SEEDS 27 Jul 21:38:31 21:42:34 43° 262° (W) 21:46:38 437.485
NOAA 18 27 Jul 21:38:46 21:39:58 11° 285° (WNW) 21:41:10 137.9125
AISAT 27 Jul 21:41:58 21:43:10 11° 34° (NNE) 21:44:22 437.250
COMPASS 1 27 Jul 21:48:52 21:52:54 46° 261° (W) 21:56:56 437.405
Cosmos 2504 27 Jul 21:49:23 21:57:37 49° 59° (ENE) 22:05:14 435.465 / 435.565
FUNcube-1 27 Jul 21:53:13 21:57:48 83° 70° (ENE) 22:02:26 145.935
ZACube-1 27 Jul 21:54:34 21:59:10 88° 79° (E) 22:03:50 437.345
UWE-3 27 Jul 21:55:44 22:00:23 71° 256° (WSW) 22:05:06 435.000/436.395/437.385
AIST 2 27 Jul 21:58:29 22:00:26 13° 116° (ESE) 22:02:22 435.215
PCSat 27 Jul 22:01:18 22:06:42 70° 135° (SE) 22:12:08 145.827
M-CUBED/EXP-1 PRIME 27 Jul 22:03:29 22:07:31 86° 67° (ENE) 22:11:57 437.505
PRISM 27 Jul 22:04:46 22:08:15 26° 93° (E) 22:11:43 437.425
Cosmos 2491 27 Jul 22:10:12 22:18:14 44° 85° (E) 22:26:18 435.465 / 435.565
50 SAT 27 Jul 22:11:35 22:12:11 10° 42° (NE) 22:12:47 437.505
HO-68 27 Jul 22:16:45 22:22:59 31° 270° (W) 22:29:18 435.675
AAUSAT CUBESAT 2 27 Jul 22:16:49 22:20:37 33° 265° (W) 22:24:24 437.432
ESTCUBE 1 27 Jul 22:17:18 22:20:35 20° 47° (NE) 22:23:53 437.505/2401.250
CUBEBUG 2 27 Jul 22:20:02 22:24:25 38° 265° (W) 22:28:54 437.445
SPROUT 27 Jul 22:22:57 22:24:09 11° 36° (NE) 22:25:21 437.525
CANX-2 27 Jul 22:25:14 22:27:53 16° 276° (W) 22:30:33 2200.000
AUBIESAT-1 27 Jul 22:28:59 22:33:03 72° 248° (WSW) 22:37:26 437.475
CUBEBUG 1 27 Jul 22:30:02 22:33:02 19° 46° (NE) 22:36:02 437.445
YUBILEINY 27 Jul 22:30:40 22:39:26 67° 265° (W) 22:48:08 435.215
VELOX 1 27 Jul 22:30:57 22:33:57 18° 45° (NE) 22:36:58 145.980
DELFI C3 27 Jul 22:32:19 22:36:19 82° 256° (WSW) 22:40:19 145.870
Oscar 11 27 Jul 22:35:18 22:39:30 46° 261° (W) 22:43:43 145.826/435.025
CUTE 1.7 + AOD 2 27 Jul 22:39:00 22:41:17 14° 277° (W) 22:43:33 437.475
GONETS M04 27 Jul 22:41:22 22:47:04 18° 3° (N) 22:52:47
CUBESAT XI-V 27 Jul 22:46:03 22:47:17 11° 327° (NNW) 22:48:31 437.345
Cosmos 2499 27 Jul 22:49:17 22:54:22 17° 358° (N) 22:59:16 435.465 / 435.565
STRAND 1 27 Jul 22:54:21 22:59:12 44° 302° (WNW) 23:04:01 437.568
BEESAT 3 27 Jul 22:56:51 23:00:46 57° 343° (NNW) 23:04:43 437.485
CINEMA 3 27 Jul 22:59:20 23:00:40 11° 285° (WNW) 23:02:03 145.822/145.860
HUMSAT D 27 Jul 23:02:24 23:06:44 81° 252° (WSW) 23:11:05 437.325/437.525
BEESAT 2 27 Jul 23:04:26 23:08:25 65° 339° (NNW) 23:12:26 435.950
AO-85 27 Jul 23:04:47 23:09:06 38° 230° (SW) 23:13:05 145.980
O/OREOS (USA 219) 27 Jul 23:08:52 23:13:22 88° 130° (SE) 23:17:54 437.305
TIGRISAT 27 Jul 23:09:02 23:12:11 18° 84° (E) 23:15:17 435.000
DX 1 27 Jul 23:11:50 23:15:25 26° 52° (NE) 23:19:00 434.975-435.025
AISAT 27 Jul 23:14:36 23:18:30 32° 56° (NE) 23:22:28 437.250
TISAT 1 27 Jul 23:15:52 23:16:39 10° 35° (NE) 23:17:26 437.305
UKube-1 27 Jul 23:23:53 23:27:29 26° 52° (NE) 23:31:05 .
UNISAT 6 27 Jul 23:25:22 23:29:08 23° 88° (E) 23:32:50 437.425
AIST 1 27 Jul 23:29:27 23:32:28 18° 51° (NE) 23:35:29
FUNcube-1 27 Jul 23:31:02 23:34:37 22° 272° (W) 23:38:14 145.935
ZACube-1 27 Jul 23:32:36 23:36:05 21° 273° (W) 23:39:36 437.345
AIST 2 27 Jul 23:34:04 23:38:04 49° 137° (SE) 23:42:05 435.215
UWE-3 27 Jul 23:34:47 23:37:43 16° 277° (W) 23:40:41 435.000/436.395/437.385
M-CUBED/EXP-1 PRIME 27 Jul 23:39:39 23:42:41 20° 265° (W) 23:45:55 437.505
PRISM 27 Jul 23:39:51 23:43:54 60° 294° (WNW) 23:47:56 437.425
50 SAT 27 Jul 23:41:32 23:44:59 39° 63° (ENE) 23:48:25 437.505
Cosmos 2504 27 Jul 23:43:08 23:51:29 65° 266° (W) 23:59:10 435.465 / 435.565
PCSat 27 Jul 23:45:01 23:50:22 55° 339° (NNW) 23:55:45 145.827
ESTCUBE 1 27 Jul 23:52:20 23:56:49 75° 69° (ENE) 00:01:20 437.505/2401.250
SPROUT 27 Jul 23:55:09 23:59:01 34° 58° (ENE) 00:02:56 437.525
BEESAT 28 Jul 00:00:50 00:02:08 11° 29° (NNE) 00:03:26 436.000
ANTELSAT 28 Jul 00:03:33 00:08:01 41° 97° (E) 00:12:23 437.575/2403.000
CUBEBUG 1 28 Jul 00:04:23 00:08:41 69° 68° (ENE) 00:13:03 437.445
VELOX 1 28 Jul 00:05:24 00:09:45 66° 67° (ENE) 00:14:10 145.980
AUBIESAT-1 28 Jul 00:05:53 00:08:21 15° 269° (W) 00:10:55 437.475
Cosmos 2491 28 Jul 00:06:03 00:14:46 71° 290° (WNW) 00:23:32 435.465 / 435.565
DELFI C3 28 Jul 00:09:24 00:11:50 16° 274° (W) 00:14:16 145.870
ITUPSAT 1 28 Jul 00:23:12 00:25:30 14° 34° (NE) 00:27:48 437.325
NANOSAT C BR1 28 Jul 00:25:15 00:27:57 16° 85° (E) 00:30:39 145.865
YUBILEINY 28 Jul 00:28:10 00:34:41 24° 291° (WNW) 00:41:11 435.215
DUCHIFAT 1 28 Jul 00:29:04 00:31:48 16° 85° (E) 00:34:33 145.980
ISS 28 Jul 00:30:21 00:32:10 14° 166° (SSE) 00:33:59 145.825
STRAND 1 28 Jul 00:34:17 00:37:20 16° 325° (NW) 00:40:21 437.568
BEESAT 3 28 Jul 00:35:04 00:38:56 48° 6° (N) 00:42:49 437.485
HUMSAT D 28 Jul 00:40:13 00:43:04 17° 275° (W) 00:45:55 437.325/437.525
GONETS M04 28 Jul 00:40:35 00:47:48 27° 36° (NE) 00:55:03
BUGSAT 1 28 Jul 00:40:52 00:42:18 11° 81° (E) 00:43:45 437.445
BEESAT 2 28 Jul 00:42:48 00:46:42 47° 2° (N) 00:50:37 435.950
TIGRISAT 28 Jul 00:44:57 00:49:41 77° 105° (ESE) 00:54:19 435.000
Cosmos 2499 28 Jul 00:45:06 00:51:21 22° 30° (NNE) 00:57:16 435.465 / 435.565
DX 1 28 Jul 00:46:55 00:51:15 78° 253° (WSW) 00:55:39 434.975-435.025
TISAT 1 28 Jul 00:47:27 00:51:12 32° 57° (ENE) 00:55:00 437.305
QB50P1 28 Jul 00:47:44 00:51:16 24° 91° (E) 00:54:46 145.935-145.965
O/OREOS (USA 219) 28 Jul 00:49:15 00:53:18 32° 331° (NNW) 00:57:22 437.305
AISAT 28 Jul 00:50:29 00:54:50 59° 257° (WSW) 00:59:14 437.250
POPSAT HIP 1 28 Jul 00:54:12 00:57:52 26° 92° (E) 01:01:30 437.405
UKube-1 28 Jul 00:58:54 01:03:12 74° 253° (WSW) 01:07:34 .
UNISAT 6 28 Jul 01:01:41 01:06:26 80° 290° (WNW) 01:11:03 437.425
AIST 1 28 Jul 01:06:30 01:10:51 74° 74° (ENE) 01:15:13
JAS-2 28 Jul 01:07:28 01:10:58 18° 84° (E) 01:14:34 435.910
AIST 2 28 Jul 01:12:24 01:16:32 65° 340° (NNW) 01:20:42 435.215
SWISSCUBE 28 Jul 01:13:42 01:17:29 24° 48° (NE) 01:21:15 437.505
QB50P2 28 Jul 01:15:14 01:19:18 39° 97° (E) 01:23:20 145.880/145.840
50 SAT 28 Jul 01:15:23 01:18:43 32° 264° (W) 01:22:03 437.505
PRISM 28 Jul 01:16:02 01:18:32 16° 315° (NW) 01:21:02 437.425
POLYITAN 1 28 Jul 01:17:51 01:21:57 39° 97° (E) 01:26:00 437.675
PCSat 28 Jul 01:29:23 01:34:37 45° 4° (N) 01:39:51 145.827
ESTCUBE 1 28 Jul 01:30:29 01:34:08 24° 270° (W) 01:37:48 437.505/2401.250
SPROUT 28 Jul 01:30:41 01:34:52 52° 259° (W) 01:39:07 437.525
BEESAT 28 Jul 01:34:32 01:38:36 28° 52° (NE) 01:42:41 436.000
Cosmos 2504 28 Jul 01:37:19 01:43:16 22° 292° (WNW) 01:48:59 435.465 / 435.565
ANTELSAT 28 Jul 01:40:20 01:44:50 46° 298° (WNW) 01:49:15 437.575/2403.000
CUBEBUG 1 28 Jul 01:41:51 01:45:26 24° 269° (W) 01:49:02 437.445
VELOX 1 28 Jul 01:42:55 01:46:38 26° 268° (W) 01:50:23 145.980
ITUPSAT 1 28 Jul 01:57:49 02:02:14 37° 57° (ENE) 02:06:39 437.325
NANOSAT C BR1 28 Jul 02:00:06 02:04:26 78° 106° (ESE) 02:08:43 145.865
DUCHIFAT 1 28 Jul 02:03:55 02:08:15 79° 108° (ESE) 02:12:31 145.980
ISS 28 Jul 02:05:38 02:07:45 16° 186° (S) 02:09:52 145.825
Cosmos 2491 28 Jul 02:05:54 02:13:23 30° 319° (NW) 02:20:55 435.465 / 435.565
MOZHAYETS 4 28 Jul 02:08:55 02:11:24 14° 40° (NE) 02:13:52
BEESAT 3 28 Jul 02:12:57 02:16:57 85° 31° (NNE) 02:20:57 437.485
BUGSAT 1 28 Jul 02:14:27 02:18:40 54° 102° (ESE) 02:22:51 437.445
Oscar 19 28 Jul 02:14:46 02:18:26 19° 85° (E) 02:22:06 437.125/150
BEESAT 2 28 Jul 02:20:55 02:24:57 74° 25° (NNE) 02:28:58 435.950
TIGRISAT 28 Jul 02:22:03 02:26:02 28° 307° (NW) 02:29:56 435.000
TISAT 1 28 Jul 02:22:34 02:26:43 55° 258° (WSW) 02:30:56 437.305
QB50P1 28 Jul 02:23:10 02:27:29 70° 292° (WNW) 02:31:46 145.935-145.965
DX 1 28 Jul 02:25:27 02:28:13 16° 274° (W) 02:31:00 434.975-435.025
POPSAT HIP 1 28 Jul 02:29:45 02:34:02 64° 294° (WNW) 02:38:18 437.405
AISAT 28 Jul 02:30:20 02:32:17 13° 279° (W) 02:34:16 437.250
O/OREOS (USA 219) 28 Jul 02:30:34 02:33:59 21° 356° (N) 02:37:25 437.305
UKube-1 28 Jul 02:37:27 02:40:03 16° 275° (W) 02:42:40 .
GONETS M04 28 Jul 02:38:04 02:46:48 61° 65° (ENE) 02:55:32
Cosmos 2499 28 Jul 02:38:56 02:46:53 49° 59° (ENE) 02:54:12 435.465 / 435.565
UNISAT 6 28 Jul 02:38:58 02:42:35 22° 312° (NW) 02:46:09 437.425
AIST 1 28 Jul 02:44:43 02:48:03 22° 275° (W) 02:51:23
SWISSCUBE 28 Jul 02:49:57 02:54:46 83° 68° (ENE) 02:59:35 437.505
QB50P2 28 Jul 02:51:05 02:55:12 43° 298° (WNW) 02:59:17 145.880/145.840
AIST 2 28 Jul 02:51:26 02:55:29 49° 3° (N) 02:59:35 435.215
JAS-2 28 Jul 02:51:52 02:57:06 73° 106° (ESE) 03:02:34 435.910
POLYITAN 1 28 Jul 02:53:44 02:57:51 43° 298° (WNW) 03:01:55 437.675
KKS-1 28 Jul 03:02:18 03:05:58 26° 51° (NE) 03:09:40 437.445
SPROUT 28 Jul 03:10:40 03:11:52 11° 281° (W) 03:13:04 437.525
BEESAT 28 Jul 03:11:15 03:16:04 78° 253° (WSW) 03:20:53 436.000
PCSat 28 Jul 03:13:18 03:18:45 68° 29° (NNE) 03:24:11 145.827
ANTELSAT 28 Jul 03:17:57 03:20:35 15° 320° (NW) 03:23:12 437.575/2403.000
CUBESAT XI-V 28 Jul 03:31:16 03:33:30 14° 38° (NE) 03:35:45 437.345
ITUPSAT 1 28 Jul 03:35:16 03:40:00 55° 258° (WSW) 03:44:45 437.325
NANOSAT C BR1 28 Jul 03:36:18 03:39:49 25° 307° (NW) 03:43:19 145.865
STARS 28 Jul 03:38:02 03:41:47 28° 53° (NE) 03:45:34 437.465
AO-7 28 Jul 03:39:43 03:44:20 15° 74° (ENE) 03:48:55 29.400- 29.500
DUCHIFAT 1 28 Jul 03:40:06 03:43:34 24° 308° (NW) 03:47:03 145.980
Gurwin Techsat 1B 28 Jul 03:42:27 03:47:27 39° 96° (E) 03:52:26 435.225
MOZHAYETS 4 28 Jul 03:43:13 03:47:37 45° 62° (ENE) 03:52:02
BUGSAT 1 28 Jul 03:50:06 03:53:54 32° 303° (WNW) 03:57:43 437.445
BEESAT 3 28 Jul 03:50:52 03:54:21 29° 231° (SW) 03:57:49 437.485
ITAMSAT 1 28 Jul 03:51:13 03:55:09 21° 87° (E) 03:59:02 435.822/435.867
Oscar 19 28 Jul 03:53:27 03:58:39 76° 107° (ESE) 04:03:50 437.125/150
BEESAT 2 28 Jul 03:58:55 04:02:38 37° 227° (SW) 04:06:21 435.950
QB50P1 28 Jul 03:59:40 04:02:39 19° 313° (NW) 04:05:38 145.935-145.965
TIGRISAT 28 Jul 04:00:39 04:01:23 10° 330° (NNW) 04:02:08 435.000
TISAT 1 28 Jul 04:01:58 04:03:22 11° 279° (W) 04:04:47 437.305
POPSAT HIP 1 28 Jul 04:06:18 04:09:09 17° 314° (NW) 04:11:59 437.405
Cosmos 2491 28 Jul 04:08:10 04:13:54 19° 351° (N) 04:19:40 435.465 / 435.565
O/OREOS (USA 219) 28 Jul 04:10:59 04:14:47 26° 21° (NNE) 04:18:36 437.305
DANDE 28 Jul 04:15:11 04:15:50 10° 87° (E) 04:16:28 436.750
QB50P2 28 Jul 04:28:02 04:30:06 13° 320° (NW) 04:32:09 145.880/145.840
SWISSCUBE 28 Jul 04:29:20 04:33:09 23° 271° (W) 04:37:00 437.505
AIST 2 28 Jul 04:30:12 04:34:23 77° 26° (NNE) 04:38:35 435.215
POLYITAN 1 28 Jul 04:30:41 04:32:44 13° 320° (NW) 04:34:46 437.675
Cosmos 2499 28 Jul 04:32:25 04:40:25 62° 266° (W) 04:47:47 435.465 / 435.565
GONETS M04 28 Jul 04:35:15 04:43:40 54° 271° (W) 04:52:08
JAS-2 28 Jul 04:37:25 04:41:59 32° 308° (NW) 04:46:40 435.910
KKS-1 28 Jul 04:37:42 04:42:10 80° 252° (WSW) 04:46:42 437.445
BEESAT 28 Jul 04:51:21 04:54:39 18° 274° (W) 04:57:58 436.000
PCSat 28 Jul 04:56:52 05:02:06 49° 233° (SW) 05:07:18 145.827
CUBESAT XI-V 28 Jul 05:05:34 05:09:54 41° 60° (ENE) 05:14:14 437.345
STARS 28 Jul 05:13:27 05:17:52 71° 255° (WSW) 05:22:20 437.465
ITUPSAT 1 28 Jul 05:16:44 05:18:56 13° 280° (W) 05:21:09 437.325
MOZHAYETS 4 28 Jul 05:20:29 05:24:53 42° 263° (W) 05:29:18
CUSAT 1 28 Jul 05:21:27 05:24:45 67° 105° (ESE) 05:27:33 437.405
Gurwin Techsat 1B 28 Jul 05:22:27 05:27:41 57° 298° (WNW) 05:32:53 435.225
STRAND 1 28 Jul 05:25:48 05:29:01 17° 37° (NE) 05:32:16 437.568
BUGSAT 1 28 Jul 05:27:21 05:28:12 11° 324° (NW) 05:29:04 437.445
ITAMSAT 1 28 Jul 05:30:11 05:35:26 82° 108° (ESE) 05:40:39 435.822/435.867
AO-7 28 Jul 05:31:27 05:39:31 48° 100° (E) 05:47:31 29.400- 29.500
Oscar 19 28 Jul 05:33:09 05:37:40 31° 308° (NW) 05:42:11 437.125/150
HORYU 2 28 Jul 05:43:29 05:46:08 15° 84° (E) 05:48:45 437.375
O/OREOS (USA 219) 28 Jul 05:50:30 05:55:01 62° 45° (NE) 05:59:32 437.305
DANDE 28 Jul 05:53:42 05:58:12 61° 104° (ESE) 06:01:37 436.750
Cosmos 2491 28 Jul 06:08:31 06:14:58 22° 24° (NNE) 06:21:25 435.465 / 435.565
AIST 2 28 Jul 06:08:51 06:12:42 37° 228° (SW) 06:16:32 435.215
KKS-1 28 Jul 06:16:29 06:19:29 18° 274° (W) 06:22:31 437.445
JAS-2 28 Jul 06:23:36 06:25:44 13° 333° (NNW) 06:27:53 435.910
NOAA 18 28 Jul 06:25:42 06:26:23 10° 74° (ENE) 06:27:04 137.9125
Cosmos 2499 28 Jul 06:26:26 06:31:56 21° 292° (WNW) 06:37:10 435.465 / 435.565
GONETS M04 28 Jul 06:33:04 06:38:32 19° 297° (WNW) 06:44:00
BRITE-PL 28 Jul 06:39:19 06:42:33 18° 86° (E) 06:45:56 437.365/2234.400
PCSat 28 Jul 06:41:38 06:44:22 14° 254° (WSW) 06:47:06 145.827
CUBESAT XI-V 28 Jul 06:42:53 06:47:20 45° 262° (W) 06:51:46 437.345
LilacSat-2 28 Jul 06:47:22 06:47:35 10° 80° (E) 06:47:49 437.200
